Location: Huntsville
(41.2590°N, 111.7678°W)
Time: 19:06:12
(UTC+00:00)

N. Korean satellite - Pass Details

Date: 05 December 2021
Orbit: 446 x 492 km, 97.3° (Epoch: 18 January)

Event Time Altitude Azimuth Distance (km) Brightness Sun altitude
Rises 12:08:02 0° 23° (NNE) 2,459 10.3 -27.4°
Reaches altitude 10° 12:10:16 10° 36° (NE) 1,580 9.5 -27.0°
Maximum altitude 12:13:13 28° 97° (E) 882 8.5 -26.4°
Drops below altitude 10° 12:16:09 10° 157° (SSE) 1,568 9.5 -25.9°
Sets 12:18:21 0° 170° (S) 2,437 10.4 -25.5°
